Location: Prairie View Elementary School
(39.8322°N, 99.5698°W)
Time: 11:10:47
(UTC+00:00)

Cosmos 1624 Rocket - Pass Details

Date: 08 December 2019
Orbit: 757 x 784 km, 74.0° (Epoch: 25 January)

Event Time Altitude Azimuth Distance (km) Brightness Sun altitude
Exits shadow 11:50:01 36° 236° (SW) 1,210 4.7 -21.7°
Maximum altitude 11:51:52 55° 292° (WNW) 941 4.0 -21.4°
Drops below altitude 10° 11:57:07 10° 10° (N) 2,347 6.5 -20.4°
Sets 11:59:34 0° 15° (NNE) 3,280 7.3 -20.0°
